Rbgn^[z[y[W
メイン
   新天体発見情報
     Comet C/2023 X1 (Leonard)
投稿するにはまず登録を

スレッド表示 | 新しいものから 前のトピック | 次のトピック | 下へ
投稿者 スレッド
佐藤裕久
投稿日時: 2023-12-24 2:04
モデレータ
登録日: 2005-6-12
居住地: 日本
投稿: 2485
オンライン
Comet C/2023 X1 (Leonard)

G. J. Leonard (月惑星研究所:LPL, アリゾナ大学)の通報によると、12月4日UT、彼は、Catalina 
Skyサーベイの0.68-m Schmidt望遠鏡で得たCCD画像から彗星を発見した。この彗星は、中程度に
集光した約8"のコマが見えるが、尾はない。
小惑星センターのPCCP webpageに公表後、A. Hale (Cloudcroft, ニューメキシコ州, 12月5.6日UT, 
0.35-m Schmidt-Cassegrain 反射望遠鏡, Las Cumbres 天文台 Clamshellドーム, Haleakala ハワイ:
1'.2の拡散したコマが見えるが尾はない。小さくやや明るい中央集光が、より大きな拡散したコマに
埋まっていると付け加えた)や佐藤英貴氏(東京都文京区, 12月6.5日UT, 60-秒CCD露出23枚のスタック, 
0.51-m f/6.8 アストログラフ, Utah Desert Remote 天文台, Beryl Junction近郊, ユタ州, 米国, 
遠隔操作:中程度に集光した2'.0の外側のコマが見えるが尾はない。60".0の円形範囲で測定した光度
は14.7等であった)らCCD観測者によって彗星状と観測された。

彗星機能の報告は次のとおり、

OC   Date        Reporter           Coma    Tail    PA          Exposures
T03  2023-12-05  A. Hale           72"
U94  2023-12-06  H. Sato          120"                           23x60s
204  2022-12-06  A. Aletti         25"
L06  2023-12-07  P. Sicoli        102"	
V21  2023-12-07  D. T. Durig       30"                          120x30s
P87  2023-12-07  K. Yoshimoto     100"                           48x30s
J95  2023-12-08  P. Birtwhistle     8"                          145x12s
G40  2023-12-08  N. Paul           80"                           26x50s
D88  2023-12-08  Y. Sugiyama       72"

発見位置は次のとおり、

     2023 UT             R.A. (2000) Decl.       Mag.   Observer
     Dec.  4.44005   12 39 03.85   +18 23 33.9   17.3   Leonard
           4.44205   12 39 04.14   +18 23 43.1   17.6     "
           4.44404   12 39 04.31   +18 23 51.0   17.2     "
           4.44605   12 39 04.41   +18 23 59.6   17.7     "

MPCの双曲線軌道要素、位置推算表は次のとおり、

Orbital elements:
    C/2023 X1 (Leonard)                                                         
Epoch 2023 Oct. 23.0 TT = JDT 2460240.5                                         
T 2023 Oct. 18.28442 TT                                 Veres                   
q   0.9536131            (2000.0)            P               Q                  
z  -0.0000016      Peri.  321.82782     -0.72404606     -0.26410326             
 +/-0.0000000      Node   137.09107     +0.57484080     +0.27950050             
e   1.0000015      Incl.  110.62761     -0.38120253     +0.92310830             
From 128 observations 2023 Dec. 4-11, mean residual 0".8.                       
                                                                                
Ephemeris:
Date    TT    R. A. (2000) Decl.     Delta      r    Elong.  Phase   m1
2023 11 12    12 03 54.1 -02 59 57   1.4321  1.0468    47.0    43.7  18.0
...
2023 11 27    12 25 58.7 +10 04 34   1.2302  1.1747    62.9    48.4  18.1
...
2023 12 05    12 40 06.8 +19 04 34   1.1344  1.2564    72.3    48.4  18.3
...
2023 12 11    12 52 15.1 +26 54 15   1.0774  1.3220    79.6    47.1  18.4
2023 12 12    12 54 26.0 +28 17 43   1.0697  1.3332    80.8    46.8  18.4
2023 12 13    12 56 40.1 +29 42 32   1.0624  1.3445    82.0    46.5  18.4
...
2023 12 19    13 11 21.2 +38 35 33   1.0320  1.4135    89.0    44.1  18.6
...
2023 12 27    13 35 43.2 +50 56 50   1.0312  1.5083    96.9    40.3  18.9
...
2024 01 11    14 56 02.1 +71 29 30   1.1585  1.6914   104.0    34.3  19.6

(MPEC 2023-X225、CBET 5322)

スレッド表示 | 新しいものから 前のトピック | 次のトピック | トップ

投稿するにはまず登録を
 
© 1999 Tsutomu Seki.